Oak Ridge, TN

2:37 PM EDT on June 28, 2017 (GMT -0400)
Oak Ridge

Weather History for KOQT - May, 2013

Change the Weather History Date:

Sunday, May 26, 2013

  Actual Average (KTYS) Record (KTYS)
Temperature  
Mean Temperature 65 °F -  
Max Temperature 77 °F 79 °F 94 °F (1926)
Min Temperature 55 °F 58 °F 38 °F (1979)
Growing Degree Days 15 (Base 50)    
Moisture  
Dew Point 51 °F    
Average Humidity 64    
Maximum Humidity 93    
Minimum Humidity 38    
Precipitation  
Precipitation 0.06 in - - ()
Sea Level Pressure  
Sea Level Pressure 30.24 in    
Wind  
Wind Speed 0 mph (East)    
Max Wind Speed 5 mph    
Max Gust Speed -    
Visibility 10 miles    
Events Rain    
Averages and records for this station are not official NWS values.
T = Trace of Precipitation, MM = Missing Value Source: NWS Daily Summary

Daily Weather History Graph

Daily Weather History Graph

Search for Another Location

Airport or City:

Trip Planner

Search our weather history database for the weather conditions in past years. The results will help you decide how hot, cold, wet, or windy it might be!

Date:

Astronomy

May. 26, 2013 Rise Set
Actual Time 6:23 AM EDT 8:44 PM EDT
Civil Twilight 5:54 AM EDT 9:13 PM EDT
Nautical Twilight 5:18 AM EDT 9:50 PM EDT
Astronomical Twilight 4:38 AM EDT 10:29 PM EDT
Moon 10:32 PM EDT (5/26) 7:51 AM EDT (5/26)
Length of Visible Light 15h 19m
Length of Day
14h 20m
Waning Gibbous, 97% of the Moon is Illuminated
May 26
Waning Gibbous
May 31
Last Quarter
Jun 8
New
Jun 16
First Quarter
Jun 23
Full

Hourly Weather History & Observations

Time (EDT) Temp. Dew Point Humidity Pressure Visibility Wind Dir Wind Speed Gust Speed Precip Events Conditions
12:53 AM 57.0 °F 48.9 °F 74% 30.23 in 10.0 mi Calm Calm - N/A   Mostly Cloudy
1:53 AM 57.0 °F 48.9 °F 74% 30.23 in 10.0 mi Calm Calm - N/A   Overcast
2:53 AM 55.9 °F 48.9 °F 77% 30.21 in 10.0 mi Calm Calm - N/A   Mostly Cloudy
3:53 AM 55.9 °F 50.0 °F 80% 30.22 in 10.0 mi Calm Calm - N/A   Overcast
4:53 AM 57.0 °F 50.0 °F 77% 30.23 in 10.0 mi Calm Calm - N/A   Overcast
5:53 AM 57.9 °F 48.9 °F 72% 30.27 in 10.0 mi Calm Calm - 0.00 in Rain Light Rain
6:53 AM 55.0 °F 52.0 °F 89% 30.27 in 10.0 mi NE 3.5 mph - 0.05 in Rain Light Rain
7:53 AM 55.9 °F 54.0 °F 93% 30.28 in 9.0 mi Calm Calm - 0.01 in Rain Light Rain
8:53 AM 57.9 °F 54.0 °F 87% 30.29 in 10.0 mi Calm Calm - 0.00 in Rain Light Rain
9:53 AM 62.1 °F 54.0 °F 75% 30.30 in 10.0 mi Calm Calm - 0.00 in   Overcast
10:53 AM 63.0 °F 51.1 °F 65% 30.31 in 10.0 mi Calm Calm - N/A   Overcast
11:53 AM 66.0 °F 50.0 °F 56% 30.30 in 10.0 mi Calm Calm - N/A   Partly Cloudy
12:53 PM 69.1 °F 48.0 °F 47% 30.29 in 10.0 mi East 4.6 mph - N/A   Mostly Cloudy
1:53 PM 72.0 °F 45.0 °F 38% 30.26 in 10.0 mi Calm Calm - N/A   Partly Cloudy
2:53 PM 73.9 °F 48.0 °F 40% 30.24 in 10.0 mi Calm Calm - N/A   Clear
3:53 PM 75.0 °F 51.1 °F 43% 30.22 in 10.0 mi Calm Calm - N/A   Partly Cloudy
4:53 PM 75.0 °F 50.0 °F 41% 30.19 in 10.0 mi South 3.5 mph - N/A   Scattered Clouds
5:53 PM 75.9 °F 50.0 °F 40% 30.19 in 10.0 mi East 4.6 mph - N/A   Clear
6:53 PM 75.9 °F 50.0 °F 40% 30.19 in 10.0 mi Calm Calm - N/A   Clear
7:53 PM 75.0 °F 51.1 °F 43% 30.18 in 10.0 mi Calm Calm - N/A   Clear
8:53 PM 68.0 °F 55.0 °F 63% 30.19 in 10.0 mi Calm Calm - N/A   Clear
9:53 PM 66.0 °F 55.9 °F 70% 30.19 in 10.0 mi Calm Calm - N/A   Clear
10:53 PM 63.0 °F 55.9 °F 78% 30.21 in 10.0 mi Calm Calm - N/A   Clear
11:53 PM 61.0 °F 55.0 °F 81% 30.21 in 10.0 mi Calm Calm - N/A   Clear